Date String (YYYY-MM-DD hh:mm:ss) UTC,Instrument flags,absolute air pressure of the measurement (hPa),sample flow rate (lpm),inlet stack bypass flow (lpm),air temperature of the measurement (°C),ambient temperature measured by the external sensor (°C),aerosol sample conditioner tube jacket temperature (°C),OPC LED temperature (°C),internal box temperature (°C),relative humidity of the measurement (%),span deviation,mass concentration of particles derived from Lorenz-Mie calculation of OPC scattering (μg/m³),mass concentration of particles derived from Lorenz-Mie calculation of OPC scattering (μg/m³),mass concentration of particles derived from Lorenz-Mie calculation of OPC scattering (μg/m³)
DateTimeUTC,F1_M11,P_M11,Q1_M11,Q2_M11,T1_M11,T2_M11,T3_M11,T4_M11,T5_M11,U1_M11,ZSPAN_M11,X0_M11,X2_M11,X1_M11
2023-07-03 08:00:00,SystemResetWarning,0832.3,5.00,000.00,029.6,025.1,000.0,037.9,030.8,22.0,0000.0,0009.86,0004.72,0004.37
2023-07-03 08:01:00,SystemResetWarning,0832.3,5.02,000.00,029.4,025.3,000.0,037.9,030.5,22.1,0000.0,0009.92,0004.73,0004.36
2023-07-03 08:02:00,SystemResetWarning,0832.3,5.02,000.00,029.3,025.7,000.0,037.9,030.5,22.3,0000.0,0009.88,0004.72,0004.35
2023-07-03 08:03:00,SystemResetWarning,0832.3,4.99,000.00,029.3,026.1,000.0,037.9,030.6,22.3,0000.0,0010.37,0004.76,0004.36
2023-07-03 08:04:00,SystemResetWarning,0832.2,4.99,000.00,029.3,026.5,000.0,037.9,030.6,22.2,0000.0,0010.90,0004.77,0004.36
2023-07-03 08:05:00,SystemResetWarning,0832.2,5.00,000.00,029.3,026.8,000.0,037.9,030.7,22.3,0000.0,0010.65,0004.75,0004.35
2023-07-03 08:06:00,SystemResetWarning,0832.2,5.02,000.00,029.3,027.1,000.0,037.9,030.7,22.2,0000.0,0011.21,0004.74,0004.35
2023-07-03 08:07:00,SystemResetWarning,0832.2,5.00,000.00,029.3,027.3,000.0,037.9,030.8,22.2,0000.0,0010.99,0004.71,0004.34
2023-07-03 08:08:00,SystemResetWarning,0832.2,4.98,000.00,029.3,027.5,000.0,037.9,030.8,22.2,0000.0,0010.81,0004.72,0004.35
2023-07-03 08:09:00,SystemResetWarning,0832.2,5.01,000.00,029.3,027.6,000.0,037.9,030.8,22.1,0000.0,0009.64,0004.72,0004.35
2023-07-03 08:10:00,SystemResetWarning,0832.2,5.01,000.00,029.3,027.7,000.0,037.9,030.8,22.0,0000.0,0009.49,0004.71,0004.35
2023-07-03 08:11:00,SystemResetWarning,0832.2,5.00,000.00,029.3,027.8,000.0,037.9,030.9,22.0,0000.0,0009.56,0004.72,0004.35
2023-07-03 08:12:00,SystemResetWarning,0832.2,4.99,000.00,029.4,027.9,000.0,037.9,030.9,22.0,0000.0,0009.63,0004.72,0004.34
2023-07-03 08:13:00,SystemResetWarning,0832.2,4.99,000.00,029.4,028.0,000.0,037.9,030.9,22.0,0000.0,0009.54,0004.69,0004.33
2023-07-03 08:14:00,SystemResetWarning,0832.2,5.00,000.00,029.4,028.0,000.0,037.9,031.0,22.0,0000.0,0009.13,0004.64,0004.32
2023-07-03 08:15:00,SystemResetWarning,0832.2,5.01,000.00,029.4,028.1,000.0,038.0,031.0,22.0,0000.0,0008.52,0004.63,0004.31
2023-07-03 08:16:00,SystemResetWarning,0832.2,5.00,000.00,029.4,028.1,000.0,038.0,031.0,22.0,0000.0,0008.64,0004.65,0004.31
2023-07-03 08:17:00,SystemResetWarning,0832.2,5.00,000.00,029.5,028.2,000.0,038.0,031.1,22.1,0000.0,0007.91,0004.64,0004.30
2023-07-03 08:18:00,SystemResetWarning,0832.2,5.00,000.00,029.5,028.2,000.0,038.0,031.1,22.1,0000.0,0007.81,0004.62,0004.28
2023-07-03 08:19:00,SystemResetWarning,0832.2,5.00,000.00,029.5,028.3,000.0,038.0,031.1,22.2,0000.0,0007.80,0004.61,0004.27
2023-07-03 08:20:00,SystemResetWarning,0832.2,5.00,000.00,029.5,028.3,000.0,038.0,031.1,22.1,0000.0,0007.76,0004.61,0004.26
2023-07-03 08:21:00,SystemResetWarning,0832.2,5.00,000.00,029.5,028.3,000.0,038.0,031.1,22.1,0000.0,0007.86,0004.60,0004.25
2023-07-03 08:22:00,SystemResetWarning,0832.2,5.00,000.00,029.6,028.3,000.0,038.1,031.1,21.9,0000.0,0007.77,0004.57,0004.24
2023-07-03 08:23:00,SystemResetWarning,0832.1,5.00,000.00,029.6,028.4,000.0,038.1,031.2,21.8,0000.0,0007.71,0004.57,0004.24
2023-07-03 08:24:00,SystemResetWarning,0832.1,5.00,000.00,029.6,028.4,000.0,038.1,031.2,21.8,0000.0,0007.76,0004.59,0004.23
2023-07-03 08:25:00,SystemResetWarning,0832.1,5.00,000.00,029.6,028.4,000.0,038.1,031.2,21.7,0000.0,0007.62,0004.59,0004.24
2023-07-03 08:26:00,SystemResetWarning,0832.0,5.00,000.00,029.7,028.4,000.0,038.1,031.2,21.7,0000.0,0007.54,0004.59,0004.24
2023-07-03 08:27:00,SystemResetWarning,0832.0,4.99,000.00,029.7,028.5,000.0,038.1,031.3,21.8,0000.0,0007.47,0004.57,0004.24
2023-07-03 08:28:00,SystemResetWarning,0832.0,5.00,000.00,029.7,028.5,000.0,038.2,031.3,21.6,0000.0,0007.50,0004.56,0004.23
2023-07-03 08:29:00,SystemResetWarning,0832.0,5.00,000.00,029.7,028.5,000.0,038.2,031.3,21.6,0000.0,0007.54,0004.58,0004.23
2023-07-03 08:30:00,SystemResetWarning,0832.0,5.00,000.00,029.7,028.5,000.0,038.2,031.3,21.6,0000.0,0008.18,0004.57,0004.21
2023-07-03 08:31:00,SystemResetWarning,0832.0,5.00,000.00,029.7,028.5,000.0,038.2,031.3,21.6,0000.0,0008.54,0004.58,0004.21
2023-07-03 08:32:00,SystemResetWarning,0831.9,5.00,000.00,029.8,028.5,000.0,038.2,031.3,21.5,0000.0,0008.37,0004.57,0004.21
2023-07-03 08:33:00,SystemResetWarning,0831.9,5.00,000.00,029.8,027.1,000.0,038.1,031.2,21.4,0000.0,0008.39,0004.59,0004.20
2023-07-03 08:34:00,SystemResetWarning,0831.8,5.00,000.00,029.7,025.3,000.0,038.0,031.0,21.5,0000.0,0008.33,0004.58,0004.20
2023-07-03 08:35:00,SystemResetWarning,0831.9,5.00,000.00,029.6,025.1,000.0,038.0,030.7,21.6,0000.0,0008.43,0004.59,0004.20
2023-07-03 08:36:00,SystemResetWarning,0832.2,5.01,000.00,029.4,025.3,000.0,038.0,030.5,21.7,0000.0,0008.51,0004.60,0004.19
2023-07-03 08:37:00,SystemResetWarning,0832.1,5.00,000.00,029.4,025.7,000.0,038.0,030.5,21.7,0000.0,0008.68,0004.61,0004.17
2023-07-03 08:38:00,SystemResetWarning,0832.0,5.00,000.00,029.3,026.2,000.0,038.0,030.6,21.8,0000.0,0008.64,0004.59,0004.15
2023-07-03 08:39:00,SystemResetWarning,0831.9,5.00,000.00,029.3,026.5,000.0,038.0,030.7,21.8,0000.0,0008.67,0004.60,0004.15
2023-07-03 08:40:00,SystemResetWarning,0831.8,4.99,000.00,029.3,026.8,000.0,038.0,030.7,21.8,0000.0,0009.46,0004.62,0004.16
2023-07-03 08:41:00,SystemResetWarning,0831.8,4.99,000.00,029.3,027.1,000.0,037.9,030.7,21.8,0000.0,0009.05,0004.63,0004.16
2023-07-03 08:42:00,SystemResetWarning,0831.8,5.01,000.00,029.3,027.3,000.0,037.9,030.8,21.8,0000.0,0008.65,0004.59,0004.14
2023-07-03 08:43:00,SystemResetWarning,0831.9,5.02,000.00,029.3,027.5,000.0,037.9,030.8,21.8,0000.0,0008.67,0004.59,0004.14
2023-07-03 08:44:00,SystemResetWarning,0831.8,4.99,000.00,029.3,027.6,000.0,037.9,030.8,21.8,0000.0,0008.69,0004.61,0004.13
2023-07-03 08:45:00,SystemResetWarning,0831.8,5.00,000.00,029.3,027.8,000.0,037.9,030.9,21.8,0000.0,0008.79,0004.62,0004.12
2023-07-03 08:46:00,SystemResetWarning,0831.8,5.00,000.00,029.4,027.9,000.0,037.9,030.9,21.8,0000.0,0008.70,0004.61,0004.11
2023-07-03 08:47:00,SystemResetWarning,0831.8,5.00,000.00,029.4,027.9,000.0,037.9,030.9,21.8,0000.0,0008.74,0004.64,0004.11
2023-07-03 08:48:00,SystemResetWarning,0831.8,5.00,000.00,029.4,028.0,000.0,038.0,031.0,21.7,0000.0,0008.65,0004.62,0004.10
2023-07-03 08:49:00,SystemResetWarning,0831.8,5.01,000.00,029.4,028.1,000.0,038.0,031.0,21.6,0000.0,0008.76,0004.64,0004.10
2023-07-03 08:50:00,SystemResetWarning,0831.8,5.00,000.00,029.4,028.1,000.0,038.0,031.0,21.6,0000.0,0008.72,0004.62,0004.10
2023-07-03 08:51:00,SystemResetWarning,0831.8,4.99,000.00,029.5,028.1,000.0,038.0,031.0,21.5,0000.0,0007.99,0004.58,0004.09
2023-07-03 08:52:00,SystemResetWarning,0831.9,4.99,000.00,029.5,028.2,000.0,038.0,031.0,21.5,0000.0,0007.70,0004.56,0004.09
2023-07-03 08:53:00,SystemResetWarning,0831.8,5.00,000.00,029.5,028.2,000.0,038.0,031.1,21.5,0000.0,0007.86,0004.57,0004.10
2023-07-03 08:54:00,SystemResetWarning,0831.8,5.00,000.00,029.5,028.2,000.0,038.0,031.1,21.4,0000.0,0008.67,0004.58,0004.11
2023-07-03 08:55:00,SystemResetWarning,0831.8,5.00,000.00,029.5,028.3,000.0,038.0,031.1,21.4,0000.0,0008.90,0004.55,0004.11
2023-07-03 08:56:00,SystemResetWarning,0831.8,5.00,000.00,029.6,028.3,000.0,038.1,031.1,21.4,0000.0,0009.02,0004.54,0004.12
2023-07-03 08:57:00,SystemResetWarning,0831.9,5.00,000.00,029.6,028.3,000.0,038.1,031.2,21.4,0000.0,0009.04,0004.55,0004.13
2023-07-03 08:58:00,SystemResetWarning,0831.8,5.00,000.00,029.6,028.3,000.0,038.1,031.2,21.4,0000.0,0009.05,0004.54,0004.14
2023-07-03 08:59:00,SystemResetWarning,0831.8,5.00,000.00,029.6,028.3,000.0,038.1,031.2,21.4,0000.0,0009.48,0004.54,0004.14
